This demonstration page uses our WeatherBlox Daily Observations layout. Learn more.

Left ArrowRight Arrow

39.51506, -84.39828

Hourly Observations for June 30, 2019

Temp ( °F °C ) Dew Point ( °F °C ) Humidity (%) Winds ( mph kmh ) Pressure ( in mb ) Visibility ( mi km ) Precip ( " mm )
12:15 am 00:15 Clear 78 25.4 69 20.3 73 73 W 8 13 30.03 1017 10 16 N/A
12:35 am 00:35 Clear 77 25.2 69 20.3 74 74 W 7 11 30.04 1017 10 16 N/A
12:55 am 00:55 Clear 77 24.8 69 20.3 76 76 W 6 9 30.04 1017 10 16 N/A
1:15 am 01:15 Clear 76 24.5 69 20.3 78 78 WSW 8 13 30.04 1017 10 16 N/A
1:35 am 01:35 Clear 76 24.7 68 20 75 75 W 8 13 30.03 1017 10 16 N/A
1:55 am 01:55 Clear 76 24.4 68 19.8 76 76 W 9 15 30.03 1017 10 16 N/A
2:15 am 02:15 Clear 76 24.2 68 19.8 77 77 W 10 17 30.02 1017 10 16 N/A
2:35 am 02:35 Clear 75 24 68 19.9 78 78 W 8 13 30.03 1017 10 16 N/A
2:55 am 02:55 Clear 75 23.8 68 20 79 79 W 8 13 30.02 1016 10 16 N/A
3:15 am 03:15 Clear 75 23.8 68 20 79 79 W 7 11 30.02 1016 10 16 N/A
3:35 am 03:35 Clear 74 23.3 68 19.9 81 81 WSW 3 6 30.02 1016 10 16 N/A
3:55 am 03:55 Clear 73 22.6 68 20 85 85 N N/A 30.02 1017 10 16 N/A
4:15 am 04:15 Clear 73 22.9 68 20.1 84 84 N N/A 30.02 1017 10 16 N/A
4:35 am 04:35 Clear 74 23.2 68 20 82 82 N N/A 30.02 1016 10 16 N/A
4:55 am 04:55 Clear 73 22.6 68 19.9 85 85 N N/A 30.02 1017 10 16 N/A
5:15 am 05:15 Clear 73 22.5 68 20 86 86 N N/A 30.01 1016 10 16 N/A
5:35 am 05:35 Clear 73 22.7 68 20.1 85 85 S 5 7 30.02 1017 10 16 N/A
5:55 am 05:55 Clear 73 22.8 68 20.1 85 85 N N/A 30.02 1017 10 16 N/A
6:15 am 06:15 Sunny 73 22.8 68 20.2 85 85 N N/A 30.02 1017 10 16 N/A
6:35 am 06:35 Partly Cloudy 73 22.9 68 20.2 85 85 N N/A 30.03 1017 10 16 N/A
6:55 am 06:55 Sunny 72 22.4 69 20.3 88 88 N N/A 30.03 1017 10 16 N/A
7:15 am 07:15 Sunny 72 22.1 70 21 94 94 N N/A 30.04 1017 10 16 N/A
7:35 am 07:35 Partly Cloudy 74 23.1 70 21 88 88 SSW 3 6 30.05 1018 10 16 N/A
7:55 am 07:55 Sunny 75 24 70 21.3 85 85 SW 3 6 30.04 1017 10 16 N/A
8:15 am 08:15 Sunny 76 24.6 71 21.4 82 82 SW 3 6 30.04 1017 10 16 N/A
8:35 am 08:35 Sunny 78 25.4 71 21.6 80 80 WSW 3 6 30.04 1017 10 16 N/A
8:55 am 08:55 Sunny 79 26 70 21.2 75 75 NNW 3 6 30.04 1017 10 16 N/A
9:15 am 09:15 Sunny 80 26.5 70 21.2 73 73 N 6 9 30.04 1017 10 16 N/A
9:35 am 09:35 Sunny 81 27.2 70 20.9 69 69 NNW 8 13 30.04 1017 10 16 N/A
9:55 am 09:55 Sunny 82 27.8 68 20 63 63 N 7 11 30.03 1017 10 16 N/A
10:15 am 10:15 Sunny 83 28.3 68 20 61 61 NNW 7 11 30.03 1017 10 16 N/A
10:35 am 10:35 Sunny 84 28.8 67 19.4 57 57 NNW 7 11 30.01 1016 10 16 N/A
10:55 am 10:55 Sunny 85 29.2 66 18.7 53 53 NW 7 11 30.02 1017 10 16 N/A
11:15 am 11:15 Sunny 85 29.4 66 19.1 54 54 N 3 6 30.01 1016 10 16 N/A
11:35 am 11:35 Hazy 85 29.6 65 18.5 51 51 NNE 3 6 30.01 1016 7 11 N/A
11:55 am 11:55 Sunny 86 30.1 66 19 51 51 NNW 6 9 30.01 1016 10 16 N/A
12:15 pm 12:15 Sunny 87 30.5 66 19.1 51 51 NW 9 15 30.01 1016 10 16 N/A
12:35 pm 12:35 Sunny 87 30.8 67 19.4 51 51 NNW 8 13 30.01 1016 10 16 N/A
12:55 pm 12:55 Hazy 88 30.9 67 19.2 50 50 WNW 7 11 30.01 1016 5 8 N/A
1:15 pm 13:15 Sunny 88 31.1 66 18.8 48 48 NW 12 19 30.00 1016 10 16 N/A
1:35 pm 13:35 Sunny 89 31.6 67 19.4 48 48 NNW 7 11 30.00 1016 10 16 N/A
1:55 pm 13:55 Sunny 89 31.8 67 19.7 49 49 NNW 9 15 29.99 1016 10 16 N/A
2:15 pm 14:15 Partly Cloudy 90 32 67 19.5 48 48 NW 10 17 29.99 1015 10 16 N/A
2:35 pm 14:35 Sunny 90 32.2 68 20 48 48 NW 10 17 29.98 1015 10 16 N/A
2:55 pm 14:55 Mostly Cloudy 90 32.2 67 19.5 47 47 NW 5 7 29.98 1015 10 16 N/A
3:15 pm 15:15 Partly Cloudy 89 31.5 67 19.7 50 50 NNW 8 13 29.97 1015 10 16 N/A
3:35 pm 15:35 Partly Cloudy 90 32.2 65 18.5 44 44 N 6 9 29.97 1015 10 16 N/A
3:55 pm 15:55 Partly Cloudy 91 32.5 65 18.5 43 43 NNW 8 13 29.96 1014 10 16 N/A
4:15 pm 16:15 Partly Cloudy 90 32.3 64 17.9 42 42 N 7 11 29.96 1014 10 16 N/A
4:35 pm 16:35 Sunny 90 32.3 64 17.5 41 41 N 7 11 29.95 1014 10 16 N/A
4:55 pm 16:55 Sunny 91 32.5 62 16.5 38 38 N 6 9 29.94 1014 10 16 N/A
5:15 pm 17:15 Sunny 91 32.6 64 17.8 41 41 NE 12 19 29.93 1013 10 16 N/A
5:35 pm 17:35 Sunny 90 32.1 63 17.4 41 41 NNE 3 6 29.93 1013 10 16 N/A
5:55 pm 17:55 Sunny 90 32 62 16.7 40 40 N N/A 29.93 1013 10 16 N/A
6:15 pm 18:15 Sunny 89 31.7 62 16.8 41 41 NNE 6 9 29.93 1013 10 16 N/A
6:35 pm 18:35 Sunny 89 31.7 63 17 41 41 NNE 6 9 29.93 1013 10 16 N/A
6:55 pm 18:55 Sunny 89 31.4 63 17 42 42 N 5 7 29.94 1014 10 16 N/A
7:15 pm 19:15 Sunny 88 31.2 63 17.4 44 44 NNE 6 9 29.94 1014 10 16 N/A
7:35 pm 19:35 Sunny 88 30.9 62 16.8 43 43 NNE 6 9 29.95 1014 10 16 N/A
7:55 pm 19:55 Sunny 86 30 64 17.8 48 48 NNE 5 7 29.94 1014 10 16 N/A
8:15 pm 20:15 Sunny 82 28 71 21.7 69 69 NNE 3 6 29.95 1014 10 16 N/A
8:35 pm 20:35 Sunny 78 25.7 70 20.9 75 75 N N/A 29.94 1014 10 16 N/A
8:55 pm 20:55 Sunny 77 24.8 71 21.5 82 82 N N/A 29.93 1014 10 16 N/A
9:15 pm 21:15 Clear 74 23.6 70 21.2 86 86 N N/A 29.94 1014 10 16 N/A
9:35 pm 21:35 Clear 73 22.6 68 20 85 85 WNW 3 6 29.96 1015 10 16 N/A
9:55 pm 21:55 Clear 73 22.6 67 19.5 83 83 N N/A 29.96 1015 10 16 N/A
10:15 pm 22:15 Clear 72 22 68 20.1 89 89 N N/A 29.98 1015 7 11 N/A
10:35 pm 22:35 Clear 73 22.7 67 19.3 81 81 N N/A 29.97 1015 10 16 N/A
10:55 pm 22:55 Clear 71 21.7 67 19.5 87 87 N 3 6 29.99 1016 10 16 N/A
11:15 pm 23:15 Clear 71 21.5 67 19.4 88 88 NNE 5 7 30.00 1016 10 16 N/A
11:35 pm 23:35 Clear 72 22.3 67 19.6 85 85 ENE 3 6 30.01 1016 10 16 N/A
11:55 pm 23:55 Clear 71 21.4 67 19.2 87 87 N N/A 30.01 1016 10 16 N/A

Powered by AerisWeather